Wind_Speed
13 13 14 17 20 23 26 30 34 36 40 44 46 48 50 53 56 58 61 62 64 66 68 70 72 73 74 74 73 73 72 72 73 75 76 77 77 77 77 77 75 73 70 67
16 16 17 19 22 27 31 35 37 39 42 46 49 51 54 56 59 62 65 67 69 72 74 75 75 73 70 67 64 61 59 58 59 60 63 66 69 73 75 76 78 77 75 73
20 20 20 21 26 29 33 37 41 43 45 49 52 54 57 59 63 67 69 71 73 74 73 70 65 59 53 48 45 41 39 37 37 38 39 42 45 49 54 59 65 70 73 74
23 24 24 27 29 32 36 39 43 45 48 52 55 57 59 63 67 69 71 72 71 67 61 54 46 40 36 34 31 30 29 30 31 31 31 32 33 35 36 39 43 49 55 62
25 25 28 33 34 37 40 43 46 49 53 56 59 62 63 66 69 70 69 65 60 53 46 40 36 34 33 32 33 34 35 35 35 34 33 32 32 31 32 32 33 35 38 43
28 30 33 36 39 42 45 48 52 55 58 61 63 66 67 69 69 67 62 56 49 44 40 38 36 37 37 38 39 39 39 39 38 37 35 33 32 31 30 29 29 30 31 33
30 33 37 39 43 45 47 50 52 55 59 63 66 69 70 69 66 60 54 48 44 42 41 40 40 41 42 42 42 43 43 42 40 38 36 35 33 31 29 28 27 26 26 28
33 36 40 42 45 47 50 53 57 60 64 67 69 70 69 65 59 53 49 45 44 43 43 43 44 45 45 46 46 46 45 43 41 39 37 35 33 31 29 26 25 24 23 24
35 38 41 44 47 50 54 57 60 64 67 69 70 69 66 60 54 49 46 45 45 46 46 46 47 49 49 49 48 48 46 44 41 39 37 35 33 30 29 26 24 22 21 21
37 40 43 47 50 53 55 59 62 66 68 70 70 67 62 56 51 47 46 46 47 48 49 49 50 50 51 50 49 47 45 42 40 38 36 34 32 30 28 26 24 22 21 20
39 43 45 47 51 54 56 59 63 66 69 70 69 65 59 53 49 48 48 49 49 50 51 51 51 51 50 49 46 44 42 40 39 36 34 32 30 29 27 25 23 21 20 19
41 44 47 49 52 55 58 61 65 67 69 69 67 61 55 51 50 50 50 51 51 51 52 52 51 49 47 45 43 41 38 36 35 34 31 29 28 27 26 25 23 21 20 19
42 44 47 49 53 56 59 62 65 68 69 68 63 57 53 51 51 52 52 53 52 52 51 50 48 45 44 42 39 36 33 30 29 28 27 26 26 25 25 24 22 21 19 18
44 46 47 50 53 56 60 63 66 67 67 65 60 54 52 52 53 54 54 54 53 51 49 47 44 42 40 36 33 29 26 24 21 21 21 21 22 23 24 23 22 21 20 19
44 47 49 51 54 57 60 63 65 66 66 62 56 53 52 53 54 54 54 54 51 48 46 43 40 38 36 31 26 23 20 18 16 15 15 16 17 20 22 21 21 21 20 19
44 47 49 52 54 57 60 63 65 66 65 60 54 52 52 54 55 55 53 51 48 45 42 39 37 35 31 26 21 17 14 11 10 9 10 11 13 16 18 19 20 20 21 20
45 47 50 52 55 57 60 64 65 66 64 58 53 52 53 54 54 53 51 49 46 43 40 37 35 31 28 23 19 13 8 4 2 5 7 9 12 15 16 18 20 20 21 22
45 48 51 54 56 58 60 63 64 65 62 56 51 51 53 53 53 51 50 48 44 41 39 36 34 30 26 21 17 13 9 6 6 8 9 12 14 15 16 18 20 22 23 23
45 48 50 53 55 57 60 62 63 63 60 53 49 50 51 51 51 49 48 46 44 41 38 35 33 29 25 22 19 17 14 13 12 12 12 14 16 16 18 20 22 24 24 26
45 48 50 52 54 56 58 60 62 61 58 51 47 47 48 48 47 46 46 45 43 41 38 35 32 30 27 24 22 20 18 17 16 15 15 17 19 20 22 24 25 26 28 30
45 47 49 51 53 55 57 59 60 60 56 49 45 44 44 45 44 43 43 41 40 39 37 35 32 29 27 25 23 22 20 20 20 20 20 22 23 24 25 26 27 29 31 32
45 46 48 49 51 53 55 57 58 58 55 48 42 41 41 40 40 40 40 39 38 37 35 33 32 31 29 28 27 26 25 24 24 25 26 26 27 27 28 29 30 32 32 32
44 46 47 48 50 51 53 55 56 56 54 47 40 37 37 37 36 36 36 36 36 35 34 33 32 31 31 29 29 29 29 30 30 30 30 30 30 31 31 32 33 33 32 32
44 45 46 47 49 50 51 52 53 54 52 46 39 34 33 32 32 32 32 33 33 32 31 29 29 29 29 29 29 30 30 30 30 30 30 31 31 31 31 31 31 31 31 31
43 44 45 45 47 48 48 49 50 51 50 44 37 31 29 28 27 27 28 29 29 28 27 26 26 27 27 27 28 28 28 28 28 28 28 28 28 29 29 28 29 29 28 28
42 43 43 44 45 46 47 47 48 48 48 43 35 28 26 24 23 23 23 24 25 24 23 22 22 23 24 24 24 24 25 26 25 25 24 24 25 25 25 25 25 25 24 24
42 42 42 43 44 45 45 45 45 46 46 43 35 27 23 21 20 18 18 19 20 20 19 19 18 18 18 19 20 20 21 21 22 22 21 21 21 20 20 20 20 20 19 19
Wind_Direction
326 320 312 307 306 307 308 309 310 310 308 308 309 308 307 306 305 303 302 301 301 299 296 294 292 291 289 287 284 282 280 278 276 274 272 271 269 268 266 265 265 264 262 261
329 327 323 315 311 314 314 313 313 313 313 312 311 311 310 309 308 306 305 305 303 301 299 297 296 295 293 291 289 287 286 284 282 279 276 274 271 269 267 265 264 262 261 260
333 331 325 316 322 318 317 318 317 318 317 314 314 313 314 313 310 309 308 307 305 303 302 301 300 299 297 295 295 294 294 293 292 291 288 284 279 275 272 269 265 262 260 258
337 337 327 326 326 323 322 321 319 319 317 317 317 317 317 315 313 312 311 309 307 306 304 304 304 303 302 301 301 300 299 299 299 299 298 296 293 288 282 276 271 265 260 257
339 339 328 328 329 326 325 323 323 322 321 321 321 320 320 318 316 314 312 311 310 309 308 307 305 303 301 300 299 298 297 297 297 296 296 296 295 292 287 283 277 270 263 256
338 335 329 332 330 329 328 326 327 326 324 323 322 321 322 320 319 317 316 314 313 311 309 306 304 301 299 299 298 297 296 294 294 293 293 292 292 291 287 284 281 274 267 258
335 333 329 333 329 328 327 326 325 324 324 324 325 325 324 323 321 319 317 315 313 311 309 307 304 302 300 299 298 296 295 293 292 290 288 287 287 286 285 282 279 276 268 259
333 332 329 330 327 327 327 327 327 328 328 328 328 327 326 324 323 320 318 316 313 311 310 307 304 301 300 298 296 294 293 291 289 287 285 283 282 281 279 278 275 274 270 261
331 329 328 327 328 329 329 330 330 330 330 329 329 329 328 326 323 321 318 317 315 313 311 307 304 302 300 298 296 293 291 288 286 284 282 280 277 275 273 272 270 268 267 261
328 329 330 329 329 329 329 330 330 330 331 331 331 330 329 327 325 322 320 318 316 313 311 309 306 303 301 299 296 292 289 285 282 280 277 274 271 268 267 265 263 261 259 256
329 330 330 329 328 329 330 330 331 332 333 333 333 332 331 329 326 324 322 319 317 315 313 311 308 306 303 301 297 293 289 284 280 277 273 270 265 261 260 257 254 253 250 248
329 329 329 330 330 330 332 333 333 334 335 336 335 334 333 331 329 326 324 322 319 318 315 313 310 308 306 302 299 295 290 284 279 274 269 264 259 255 252 250 246 244 242 240
328 329 329 330 332 333 333 334 336 337 338 338 337 336 334 333 331 329 327 325 323 321 319 317 315 312 309 306 301 297 293 286 278 270 263 257 251 246 243 240 238 235 233 231
329 330 331 333 334 335 335 337 338 339 340 340 339 338 337 335 334 332 330 328 327 325 324 323 321 319 316 312 306 300 294 287 277 265 257 250 244 237 231 230 228 225 223 219
330 331 333 335 336 337 337 339 340 341 343 343 342 341 339 338 337 337 335 333 333 331 329 328 328 327 325 322 316 307 297 286 274 261 250 241 235 226 221 218 215 214 211 209
331 332 334 335 337 338 339 341 342 344 346 346 344 343 342 342 342 341 340 340 340 340 339 338 337 336 333 332 330 322 310 293 269 249 234 223 212 207 204 202 200 199 197 194
331 334 335 337 338 340 341 343 344 346 347 348 347 346 346 346 347 348 349 349 348 349 348 347 347 347 349 349 347 345 345 335 247 195 190 183 181 182 184 185 186 185 183 183
332 334 336 338 339 341 342 344 345 347 349 350 349 350 351 352 353 354 356 359 359 359 359 1 3 5 9 14 19 27 44 70 103 131 144 149 155 158 163 169 171 171 170 169
332 334 336 338 340 342 343 345 347 348 351 351 351 353 354 356 357 359 1 4 6 9 11 13 15 19 25 33 41 51 63 80 96 111 123 132 141 146 151 154 155 156 158 159
331 333 336 339 340 342 343 345 347 350 352 353 353 355 357 359 2 5 6 8 11 15 18 20 24 29 35 42 51 60 70 80 92 103 114 125 132 136 140 142 144 146 147 150
330 333 336 338 340 342 344 346 348 350 354 354 355 357 360 2 4 7 10 14 17 20 23 26 30 36 42 48 54 63 73 80 87 95 106 116 123 128 134 137 138 140 142 145
328 331 334 337 339 342 344 346 348 351 354 355 355 358 1 5 8 10 14 18 22 25 29 33 37 42 48 53 59 66 73 80 88 96 104 112 118 122 126 129 132 135 139 141
326 329 333 336 339 341 343 345 348 350 353 355 356 358 2 5 10 15 19 22 24 29 33 39 44 47 51 58 65 71 77 83 90 96 101 105 110 116 120 123 127 131 133 137
323 327 331 334 337 340 342 345 347 350 353 355 355 357 1 5 9 15 20 23 27 30 35 41 47 53 59 65 70 74 79 83 88 95 100 104 108 114 118 121 124 127 130 134
321 324 328 332 335 338 341 343 346 349 352 354 354 354 359 4 9 14 19 23 27 32 37 45 53 59 64 68 72 76 80 84 90 97 103 106 110 114 118 121 126 129 133 136
317 321 325 329 333 336 339 342 345 348 351 353 352 352 355 1 6 11 17 22 26 31 38 46 54 59 63 67 73 78 83 87 90 97 105 111 114 116 120 125 130 133 136 139
314 318 322 326 331 334 337 340 342 345 348 352 352 349 350 355 0 5 10 16 23 30 37 45 51 57 62 68 74 80 86 89 92 96 103 113 119 122 125 130 134 137 141 145
Height
5850 5847 5846 5844 5841 5837 5832 5828 5822 5816 5809 5801 5795 5788 5781 5773 5765 5756 5747 5739 5731 5722 5713 5705 5697 5690 5682 5676 5671 5666 5662 5659 5656 5654 5653 5652 5653 5653 5655 5658 5660 5664 5668 5673
5847 5844 5842 5839 5836 5831 5826 5820 5814 5809 5802 5793 5785 5777 5769 5761 5750 5740 5731 5722 5711 5701 5691 5681 5672 5664 5657 5650 5645 5640 5637 5634 5631 5629 5627 5626 5626 5627 5629 5631 5634 5638 5644 5650
5843 5840 5837 5834 5831 5825 5819 5812 5806 5799 5793 5783 5775 5766 5757 5747 5736 5724 5714 5702 5690 5678 5668 5658 5649 5642 5636 5630 5626 5623 5619 5617 5614 5611 5609 5607 5605 5605 5605 5605 5607 5612 5617 5624
5840 5836 5832 5831 5824 5818 5812 5806 5798 5791 5782 5773 5764 5754 5745 5733 5719 5707 5694 5681 5669 5658 5648 5640 5633 5627 5622 5618 5615 5612 5609 5607 5604 5601 5598 5596 5593 5591 5589 5587 5588 5590 5594 5599
5836 5833 5828 5822 5817 5811 5804 5797 5789 5781 5771 5761 5750 5740 5731 5717 5702 5689 5675 5662 5651 5641 5633 5627 5622 5617 5613 5610 5606 5603 5600 5597 5594 5591 5589 5586 5583 5580 5577 5576 5575 5575 5577 5581
5832 5827 5822 5818 5810 5802 5796 5788 5777 5768 5758 5748 5737 5726 5716 5701 5686 5671 5657 5646 5637 5629 5623 5617 5612 5608 5603 5599 5596 5592 5589 5585 5583 5580 5578 5575 5573 5570 5568 5566 5565 5565 5565 5568
5828 5823 5816 5811 5803 5796 5790 5783 5772 5762 5750 5737 5724 5710 5697 5682 5668 5655 5643 5634 5626 5619 5613 5607 5602 5597 5592 5587 5583 5579 5576 5572 5570 5568 5566 5564 5562 5561 5559 5557 5557 5556 5556 5558
5823 5818 5812 5804 5796 5789 5781 5771 5760 5748 5736 5723 5710 5696 5681 5666 5653 5641 5632 5623 5616 5609 5602 5596 5590 5584 5579 5574 5569 5565 5561 5558 5556 5554 5553 5552 5551 5550 5549 5549 5548 5548 5548 5550
5819 5814 5806 5797 5789 5780 5770 5760 5748 5736 5724 5710 5696 5682 5667 5654 5642 5631 5621 5613 5605 5598 5591 5584 5577 5570 5564 5559 5553 5549 5546 5543 5542 5540 5540 5539 5540 5540 5540 5540 5540 5541 5542 5543
5813 5807 5799 5790 5781 5772 5762 5751 5739 5726 5713 5698 5683 5669 5654 5642 5631 5621 5612 5603 5594 5586 5578 5570 5563 5555 5548 5542 5536 5532 5529 5527 5526 5526 5526 5527 5527 5529 5530 5531 5533 5534 5536 5537
5807 5799 5793 5785 5775 5765 5755 5743 5730 5717 5702 5686 5671 5656 5643 5631 5620 5611 5602 5592 5582 5573 5564 5556 5547 5539 5532 5525 5520 5515 5513 5511 5510 5511 5512 5513 5515 5517 5520 5522 5525 5527 5530 5532
5801 5793 5785 5777 5767 5756 5745 5734 5721 5706 5692 5677 5660 5645 5633 5622 5611 5601 5591 5581 5570 5560 5550 5541 5532 5523 5516 5509 5503 5499 5497 5495 5495 5496 5498 5500 5503 5507 5510 5514 5517 5521 5524 5527
5795 5787 5779 5770 5760 5748 5737 5725 5711 5696 5681 5666 5651 5637 5625 5614 5603 5592 5581 5569 5558 5547 5536 5526 5517 5508 5501 5494 5488 5484 5482 5481 5481 5483 5485 5489 5492 5497 5501 5506 5510 5515 5519 5523
5788 5780 5772 5763 5752 5741 5729 5716 5703 5688 5673 5657 5643 5630 5618 5606 5595 5583 5570 5558 5546 5534 5524 5513 5504 5495 5488 5481 5476 5472 5471 5470 5470 5472 5475 5479 5483 5488 5493 5498 5504 5509 5514 5519
5781 5773 5764 5755 5745 5734 5722 5709 5696 5682 5667 5652 5637 5624 5612 5600 5587 5574 5561 5548 5536 5524 5513 5503 5494 5486 5478 5471 5466 5463 5462 5461 5462 5464 5468 5471 5476 5481 5487 5493 5499 5505 5511 5516
5775 5767 5758 5749 5739 5728 5716 5703 5689 5675 5660 5645 5632 5620 5607 5595 5581 5568 5554 5541 5528 5517 5506 5496 5487 5479 5471 5465 5460 5457 5456 5456 5457 5460 5463 5467 5471 5476 5483 5489 5495 5502 5508 5514
5769 5761 5752 5743 5733 5721 5709 5696 5682 5668 5654 5640 5628 5616 5604 5591 5578 5564 5551 5537 5525 5513 5502 5493 5483 5475 5468 5462 5458 5455 5454 5455 5456 5459 5462 5466 5470 5476 5481 5488 5494 5500 5507 5514
5763 5754 5745 5735 5725 5715 5704 5691 5678 5664 5650 5637 5625 5614 5602 5589 5576 5563 5550 5537 5525 5514 5503 5494 5485 5476 5469 5464 5460 5458 5457 5457 5459 5461 5464 5468 5473 5478 5483 5488 5494 5501 5508 5515
5757 5749 5740 5731 5720 5710 5698 5687 5674 5661 5648 5635 5624 5613 5601 5588 5576 5564 5552 5540 5529 5518 5508 5498 5490 5482 5476 5471 5467 5465 5464 5464 5465 5467 5470 5473 5477 5482 5487 5492 5498 5505 5512 5519
5752 5744 5735 5726 5716 5706 5695 5683 5671 5659 5646 5634 5623 5613 5602 5591 5579 5568 5556 5545 5534 5523 5514 5506 5498 5492 5486 5481 5478 5475 5474 5473 5474 5475 5477 5480 5484 5488 5493 5498 5504 5510 5517 5524
5746 5739 5730 5722 5712 5702 5691 5680 5668 5657 5645 5633 5623 5614 5604 5594 5583 5572 5563 5553 5543 5533 5524 5516 5509 5502 5497 5492 5489 5486 5484 5484 5484 5484 5486 5489 5492 5496 5501 5506 5512 5518 5525 5532
5741 5734 5726 5718 5709 5699 5688 5677 5666 5655 5644 5634 5624 5616 5607 5597 5588 5578 5569 5560 5551 5543 5534 5527 5520 5514 5509 5505 5501 5498 5496 5495 5495 5496 5497 5499 5502 5506 5511 5516 5521 5527 5534 5541
5735 5728 5721 5713 5705 5695 5685 5675 5664 5654 5643 5634 5625 5617 5609 5601 5592 5584 5577 5568 5560 5553 5546 5539 5533 5527 5522 5518 5515 5512 5510 5509 5509 5509 5511 5513 5516 5519 5523 5528 5533 5539 5545 5551
5729 5722 5715 5708 5700 5692 5683 5673 5663 5653 5643 5633 5625 5618 5612 5605 5597 5590 5582 5576 5569 5562 5556 5551 5545 5540 5536 5533 5529 5527 5525 5524 5524 5524 5526 5528 5530 5533 5537 5542 5546 5551 5556 5561
5722 5716 5710 5703 5696 5688 5680 5671 5662 5652 5643 5634 5626 5619 5613 5607 5601 5595 5588 5583 5577 5572 5566 5561 5557 5553 5549 5546 5543 5541 5539 5538 5538 5538 5540 5542 5544 5547 5550 5554 5558 5562 5566 5571
5716 5710 5704 5698 5692 5684 5676 5668 5659 5651 5642 5634 5626 5620 5614 5609 5603 5598 5594 5589 5584 5579 5575 5571 5567 5564 5561 5558 5555 5553 5552 5551 5551 5551 5552 5554 5556 5558 5561 5564 5568 5571 5575 5579
5709 5704 5698 5693 5686 5679 5672 5664 5657 5649 5641 5633 5626 5620 5615 5610 5605 5601 5597 5593 5589 5585 5582 5579 5575 5572 5570 5568 5566 5564 5563 5562 5562 5562 5563 5564 5566 5568 5570 5573 5576 5579 5582 5585